Location: Earls Croome
(52.0667°N, 2.2000°W)
Time: 21:40:56
(UTC+00:00)

Cosmos 1933 - Pass Details

Date: 17 November 2019
Orbit: 546 x 565 km, 82.5° (Epoch: 08 December)

Event Time Altitude Azimuth Distance (km) Brightness Sun altitude
Rises 06:29:52 0° 342° (NNW) 2,739 6.5 -9.5°
Reaches altitude 10° 06:32:11 10° 332° (NNW) 1,837 5.6 -9.1°
Maximum altitude 06:35:48 32° 269° (W) 956 4.1 -8.6°
Drops below altitude 10° 06:39:22 10° 206° (SSW) 1,817 5.9 -8.1°
Sets 06:41:40 0° 196° (SSW) 2,704 6.9 -7.8°
